Marc Fuchs

スカウト - VfL Wolfsburg
3 12月 2028
日曜日
処理

性格

適応力 (15) 野心 (14) 物議 (14) 忠誠心 (9) プレッシャー耐性 (15) プロ意識 (13) スポーツマンシップ (1) 気質 (20)

プロフィール

指導スタイル 民主型
ライセンス 大陸プロ
決断力 13
人材管理 8
モチベーション 7
規律 13
仕事満足度
100%
疲労度
0%
役職 スカウト
給与 98.1K 週給
契約 14.03.2029

パフォーマンス

態度 良い
トレーニング効果
58%
選手育成
70%
怪我予防
30%
戦術実行
70%

最近の出来事

補強会議に出席 たった今
獲得候補を推薦 たった今
選手を視察 たった今
選手を視察 7日前
選手を視察 7日前
試合を観察 7日前
選手を視察 7日前
選手を視察 7日前

監視中

113
選手 クラブ 状態 能力 自信 視察済み 最終確認 最新投票
Álvaro Montoro Botafogo アクティブ 135 / 138 40% 7 01.12.2028 -
Estêvão Portsmouth アクティブ 157 / 154 40% 2 01.12.2028 -
Harry Gray Harrogate Town アクティブ 131 / 138 40% 1 01.12.2028 -
Luis Otávio Orlando City アクティブ 107 / 126 40% 3 28.11.2028 -
Babis Kostoulas Oxford United アクティブ 146 / 155 40% 2 28.11.2028 -
Honest Ahanor Atalanta アクティブ 146 / 144 40% 13 26.11.2028 -
Matías Arias Vélez アクティブ 115 / 122 40% 4 26.11.2028 -
Ayyoub Bouaddi Stoke City アクティブ 152 / 157 40% 2 26.11.2028 -
Lucca São Paulo アクティブ 119 / 122 40% 3 24.11.2028 -
Sebastian Rodriguez Houston Dynamo アクティブ 114 / 124 40% 2 24.11.2028 -
Mikey Moore Stockport County アクティブ 147 / 146 40% 1 24.11.2028 -
Olivier Mambwa Young Boys アクティブ 112 / 122 40% 8 23.11.2028 -
Lisandro Piñero Banfield アクティブ 126 / 124 40% 3 22.11.2028 -
Rio Ngumoha Plymouth Argyle アクティブ 146 / 148 40% 2 22.11.2028 -
Jacob Peter Hödl Sturm Graz アクティブ 123 / 126 40% 1 22.11.2028 -
Aarón Ochoa Málaga アクティブ 126 / 133 40% 2 19.11.2028 -
Santiago Segovia Rosario Central アクティブ 109 / 121 40% 1 19.11.2028 -
Franco Mastantuono Córdoba アクティブ 151 / 152 40% 1 18.11.2028 -
Mihajlo Cvetković Club Brugge アクティブ 130 / 134 40% 1 18.11.2028 -
Lennart Karl TSG Hoffenheim アクティブ 138 / 154 40% 1 15.11.2028 -
Celías Ingenthron Platense アクティブ 112 / 130 40% 3 13.11.2028 -
Valentino Huertas Morón アクティブ 102 / 109 40% 1 13.11.2028 -
Ethan Nwaneri Arsenal アクティブ 159 / 160 40% 1 12.11.2028 -
Geovany Quenda Watford アクティブ 149 / 156 40% 1 09.11.2028 -
Joris Boguo Wolfsberger AC アクティブ 104 / 110 40% 1 07.11.2028 -
Ibrahim Mbaye Queens Park Rangers アクティブ 147 / 144 40% 3 06.11.2028 -
Tahiel Peralta Racing Club アクティブ 108 / 116 40% 1 06.11.2028 -
Johannes Moser Sturm Graz アクティブ 107 / 119 40% 1 06.11.2028 -
Peyton Miller New England Revolution アクティブ 107 / 119 40% 1 06.10.2028 -
Ryunosuke Sato Eibar アクティブ 133 / 138 40% 1 04.10.2028 -
Matias Siltanen Malmo FF アクティブ 131 / 133 40% 3 02.10.2028 -
Ramazan Bağdat Kairat アクティブ 106 / 112 40% 1 02.10.2028 -
Facundo Krüger Temperley アクティブ 117 / 113 40% 1 28.08.2028 -
Endrick Boca Juniors アクティブ 164 / 162 40% 1 28.08.2028 -
Thomas Schlupp BA All Stars アクティブ 114 / 109 40% 1 28.08.2028 -
Mathias Honsak Heidenheim 逃した 135 / 134 76% 1 21.08.2028 承認
Adam Hložek TSG Hoffenheim 逃した 146 / 145 76% 1 14.08.2028 承認
Trey Nyoni Rotherham United アクティブ 142 / 151 40% 6 08.08.2028 -
Shea Lacey Crystal Palace アクティブ 143 / 141 40% 2 08.08.2028 -
Ryan McAidoo Oldham Athletic アクティブ 133 / 132 40% 2 08.08.2028 -
Arnaud Kalimuendo Nottingham Forest アクティブ 150 / 153 40% 1 05.07.2028 -
Brandon Thomas-Asante Blackpool アクティブ 125 / 128 40% 1 05.07.2028 -
Iliman N'Diaye Everton アクティブ 161 / 162 40% 2 04.07.2028 -
Ez Abde Betis アクティブ 157 / 156 40% 1 04.07.2028 -
William Osula Wrexham アクティブ 143 / 136 40% 1 03.07.2028 -
Christopher Nkunku AC Milan アクティブ 168 / 162 40% 1 03.07.2028 -
Isaac Romero Sevilla 逃した 149 / 142 40% 1 26.06.2028 -
Yousef Salech Cardiff City 逃した 138 / 131 40% 1 26.06.2028 -
Rayan Hamburger SV アクティブ 140 / 153 40% 1 18.06.2028 -
Saïd El Mala Köln アクティブ 148 / 153 76% 1 03.06.2028 承認
Tyler Fletcher Rotherham United アクティブ 113 / 116 40% 3 31.05.2028 -
Kerim Alajbegović Modena アクティブ 138 / 137 40% 1 31.05.2028 -
Ben Broggio Mansfield Town アクティブ 114 / 120 40% 1 31.05.2028 -
Daniel Banjaqui Benfica アクティブ 119 / 126 40% 11 29.05.2028 -
Jorge Salinas Racing Santander アクティブ 136 / 139 40% 8 29.05.2028 -
Christos Mouzakitis Hull City アクティブ 132 / 141 40% 3 28.05.2028 -
Giovanni Leoni Lincoln City アクティブ 142 / 141 40% 7 27.05.2028 -
Héctor Fort Real Sociedad アクティブ 147 / 142 40% 4 25.05.2028 -
Jan Bürger Northampton Town アクティブ 125 / 128 40% 2 25.05.2028 -
Josh Nichols Oldham Athletic アクティブ 123 / 122 40% 7 23.05.2028 -
Givairo Read Feyenoord アクティブ 152 / 156 40% 6 22.05.2028 -
Martim Cunha Porto アクティブ 109 / 110 40% 6 22.05.2028 -
Marc Bernal Sevilla アクティブ 151 / 156 40% 6 20.05.2028 -
Riquelme Thompson-Jones Accrington Stanley アクティブ 107 / 115 40% 5 20.05.2028 -
Andrija Bulatović Chamois Niortais アクティブ 129 / 132 40% 4 19.05.2028 -
Pau Cubarsí Real Sociedad アクティブ 161 / 167 40% 11 18.05.2028 -
Bernardo Lima Porto アクティブ 109 / 115 40% 4 18.05.2028 -
Ayden Heaven Portsmouth アクティブ 147 / 150 40% 7 18.05.2028 -
Jorthy Mokio ADO Den Haag アクティブ 130 / 137 40% 6 06.05.2028 -
Josh Acheampong Everton アクティブ 137 / 145 40% 3 06.04.2028 -
Izan Merino Málaga アクティブ 125 / 131 40% 2 05.04.2028 -
Prosper Peter Olympique Lyonnais アクティブ 111 / 123 40% 1 29.06.2027 -
Finn Azaz Southampton アクティブ 130 / 132 40% 1 18.05.2027 -
Georges Mikautadze Villarreal アクティブ 152 / 151 40% 1 18.05.2027 -
Joe Gelhardt Hull City アクティブ 138 / 137 40% 1 18.05.2027 -
Manu Koné AS Roma アクティブ 167 / 164 40% 2 15.05.2027 -
Chemsdine Talbi Sunderland アクティブ 147 / 141 40% 2 13.05.2027 -
Roberto Fernández Braga アクティブ 150 / 142 40% 6 11.05.2027 -
Kevin Fulham アクティブ 146 / 150 40% 2 09.05.2027 -
Aimar Osasuna アクティブ 148 / 148 40% 1 09.05.2027 -
Pablo Torre Mallorca アクティブ 140 / 146 40% 1 08.05.2027 -
Jonathan Dubasin Osasuna アクティブ 138 / 141 40% 1 08.05.2027 -
David Larrubia Málaga アクティブ 139 / 133 40% 1 02.05.2027 -
Savinho Tottenham アクティブ 153 / 152 40% 1 01.05.2027 -
Omar El Hilali Espanyol アクティブ 145 / 154 40% 1 01.05.2027 -
Andrés Martín Racing Santander 逃した 144 / 132 40% 4 27.04.2027 -
Francisco Conceição Köln アクティブ 151 / 156 40% 3 12.04.2027 -
Yeremy Pino Crystal Palace アクティブ 156 / 151 40% 3 11.04.2027 -
Osame Sahraoui LOSC Lille アクティブ 141 / 142 40% 1 06.04.2027 -
Pau Víctor Braga アクティブ 135 / 140 40% 1 04.04.2027 -
Takefusa Kubo VfB Stuttgart アクティブ 158 / 160 40% 2 31.03.2027 -
Geny Sporting CP アクティブ 148 / 148 40% 2 31.03.2027 -
Mikel Jauregizar Athletic Bilbao アクティブ 159 / 159 40% 3 21.03.2027 -
Alfon Sevilla アクティブ 145 / 136 40% 1 10.03.2027 -
Petter Nosa Dahl Rapid Wien アクティブ 124 / 120 40% 2 25.12.2026 -
Carlos Álvarez Club America アクティブ 146 / 146 40% 1 25.12.2026 -
Oihan Sancet Athletic Bilbao アクティブ 153 / 157 40% 3 20.12.2026 -
Christantus Uche Getafe アクティブ 132 / 138 40% 1 20.12.2026 -
Sota Kitano Red Bull Salzburg アクティブ 130 / 118 40% 2 16.12.2026 -
Yorbe Vertessen Red Bull Salzburg アクティブ 127 / 127 40% 2 15.12.2026 -
Metinho Basel アクティブ 126 / 127 40% 2 10.12.2026 -
João Pedro Chelsea アクティブ 146 / 154 40% 1 10.12.2026 -
Moisés Caicedo Chelsea アクティブ 161 / 165 40% 2 07.12.2026 -
Carlos Forbs Club Brugge アクティブ 142 / 137 40% 1 27.11.2026 -
Oswin Appollis Orlando Pirates アクティブ 125 / 120 40% 1 20.11.2026 -
Mattia Zanotti Young Boys アクティブ 121 / 128 40% 1 09.11.2026 -
Matthias Seidl Rapid Wien アクティブ 122 / 123 40% 1 31.10.2026 -
Amadou Onana Aston Villa アクティブ 148 / 149 40% 1 26.10.2026 -
Michael Olise Bayern Munich アクティブ 181 / 180 40% 1 23.10.2026 -
Maurits Kjærgaard Red Bull Salzburg アクティブ 121 / 131 40% 1 20.10.2026 -
Felix Nmecha Borussia Dortmund アクティブ 152 / 166 40% 1 04.08.2026 -
Frenkie de Jong Barcelona アクティブ 156 / 167 40% 1 01.08.2026 -
Cody Gakpo Liverpool アクティブ 153 / 161 40% 1 01.08.2026 -